STARLINK-34736

Last updated on Tue Aug 19 2025 00:02:05 GMT+0000 (Coordinated Universal Time)

1 64846U 25152E 25230.57952901 .00084254 00000+0 21377-2 0 9997 2 64846 97.6032 84.1860 0001913 68.1691 291.9757 15.39358986 4785
UTC large
Height (km)
Speed (km/s)
/
Latitude / Longitude
Inclination (degrees)
Orbital Period (minutes)
Azimuth
Elevation
Range (km)
Doppler Factor

Next 0 passes for location: London (51.5072 / 0.1276)

Sorry there are no passes over London.
STARLINK-34736